Lapse_Rate
6.7 6.5 6.4 6.6 6.9 6.9 7.1 7.3 7.6 7.7 7.8 7.9 7.9 8.1 8.2 8.3 8.3 8.5 8.3 8.1 8.1 7.5 7.0 6.6 6.5 6.4 6.6 7.0 7.4 7.2 7.1 7.0 7.1 7.1 6.8 6.7 6.6 6.5 6.6 6.6 6.6 6.5 6.4 6.3
6.6 6.4 7.0 7.1 7.0 6.9 7.1 7.4 7.4 7.7 7.8 7.9 7.8 8.3 8.3 8.4 8.5 8.6 8.5 8.3 8.1 7.7 7.3 6.9 6.6 6.6 6.8 6.7 6.8 6.8 6.7 6.7 6.9 6.8 6.9 7.0 7.0 6.8 6.7 6.8 6.9 6.8 6.6 6.4
7.0 7.0 7.2 7.2 7.2 7.0 7.2 7.1 7.6 7.8 8.0 7.9 7.9 8.1 8.3 8.3 8.6 8.6 8.6 8.4 8.2 8.1 7.6 7.1 6.7 6.4 6.8 6.8 6.8 6.7 6.7 6.8 6.9 6.9 6.7 6.9 6.7 7.1 6.9 6.8 6.9 6.9 6.7 6.5
6.8 7.1 7.4 7.2 7.2 7.3 7.2 7.6 7.8 7.8 7.6 7.8 8.0 8.2 8.2 8.3 8.3 8.3 8.5 8.6 8.5 8.2 7.7 7.2 6.9 6.9 6.9 6.7 6.7 6.8 6.9 7.0 7.1 7.0 6.8 6.9 6.8 6.9 6.9 6.8 6.8 6.8 6.7 6.5
6.6 7.0 7.2 7.0 7.3 7.7 7.7 7.8 7.8 7.8 7.6 7.5 7.7 7.7 8.0 8.2 8.0 8.2 8.3 8.5 8.5 8.5 8.2 7.7 7.3 7.0 7.0 7.0 7.0 7.0 7.0 7.1 7.2 6.9 6.6 6.8 6.8 6.8 7.1 7.1 6.9 6.8 6.6 6.5
7.2 7.4 7.3 7.3 7.7 7.5 7.7 7.8 7.8 7.7 7.6 7.2 7.7 8.0 7.7 7.9 7.9 7.8 8.3 8.5 8.5 8.3 8.2 8.1 7.7 7.3 7.0 6.9 7.0 7.1 7.1 7.2 7.2 7.1 6.5 6.3 6.7 6.8 7.1 7.4 7.0 6.8 6.7 6.5
6.8 7.1 7.2 7.3 7.5 7.6 7.5 7.6 7.4 7.4 7.1 7.2 7.8 7.9 7.5 7.9 7.8 8.2 8.3 8.3 8.3 8.5 8.3 8.1 8.1 7.8 7.4 7.1 6.9 6.8 7.0 7.1 7.2 7.0 6.5 6.3 6.4 6.8 7.0 7.2 7.0 6.8 6.6 6.5
6.9 6.9 6.9 7.0 7.3 7.3 7.5 7.6 7.3 7.2 7.1 7.7 7.6 7.4 7.5 7.9 7.9 8.2 8.4 8.3 8.3 8.4 8.3 8.1 8.1 8.0 7.8 7.4 7.2 7.0 6.9 7.1 7.1 7.0 6.7 6.4 5.9 6.4 6.8 7.0 6.9 6.8 6.6 6.4
6.9 7.0 7.5 7.1 7.5 7.3 7.1 7.1 7.6 7.8 7.0 7.1 7.5 7.7 7.6 7.9 8.0 8.1 8.4 8.4 8.3 8.4 8.3 7.9 7.9 7.9 7.7 7.6 7.4 7.2 7.0 6.9 7.1 7.1 6.8 6.6 6.5 6.7 7.0 6.8 7.0 6.9 6.6 6.5
7.6 7.3 7.3 7.7 7.8 7.5 7.4 7.6 7.5 7.3 6.7 7.2 6.9 6.8 7.6 7.9 8.1 8.1 8.3 8.6 8.3 8.3 8.0 7.9 7.9 7.8 7.7 7.6 7.5 7.4 7.3 7.1 7.0 7.1 7.2 7.0 7.0 6.9 6.8 7.0 7.1 7.1 6.8 6.6
7.4 7.7 7.6 7.6 7.5 7.2 7.1 7.5 7.4 7.8 7.7 7.8 7.5 7.2 7.8 8.0 8.0 8.0 8.1 8.1 8.2 8.1 8.0 7.8 7.7 7.7 7.9 7.9 7.8 7.7 7.8 7.7 7.5 7.3 7.2 7.1 7.1 7.0 7.0 7.1 7.2 7.1 7.0 6.7
7.2 7.6 7.6 7.4 7.7 7.9 7.8 7.6 7.8 7.7 6.6 6.9 7.3 7.5 7.8 8.1 8.0 8.1 8.1 8.1 8.1 8.0 8.1 8.0 7.8 7.8 7.8 8.0 8.0 7.9 8.0 8.0 7.7 7.6 7.4 7.3 7.2 7.2 7.2 7.3 7.3 7.2 7.0 6.8
7.6 7.6 7.4 7.7 7.6 7.4 7.5 7.5 7.7 7.6 7.9 7.3 7.3 7.2 7.9 8.1 8.2 8.2 8.3 8.3 8.2 8.3 8.1 8.1 8.2 8.0 7.9 7.8 7.9 8.0 7.9 8.0 7.9 7.8 7.5 7.4 7.4 7.5 7.4 7.3 7.3 7.3 7.0 6.7
8.3 8.0 7.6 7.1 6.8 7.3 7.0 7.2 7.4 7.6 7.5 7.2 7.1 7.4 7.7 8.1 8.4 8.4 8.2 8.2 8.3 8.3 8.1 8.0 8.2 8.2 8.1 8.0 7.9 7.9 8.2 8.2 8.2 8.1 7.9 7.7 7.5 7.3 7.3 7.3 7.2 7.0 7.0 6.8
8.1 7.6 7.5 7.3 7.6 8.1 8.1 7.8 7.7 7.6 7.7 7.7 7.6 7.7 8.1 8.3 8.4 8.4 8.3 8.2 8.3 8.4 8.3 8.2 8.3 8.3 8.3 8.1 8.1 8.1 7.9 8.1 8.1 8.1 8.2 8.1 7.8 7.5 7.4 7.3 7.3 7.1 7.0 6.9
8.6 7.8 7.7 7.7 7.6 7.6 7.9 8.3 8.1 7.8 7.7 7.7 7.7 7.7 8.1 8.2 8.4 8.2 8.2 8.4 8.3 8.4 8.5 8.4 8.3 8.2 8.3 8.3 8.3 8.3 8.2 8.1 7.8 7.9 8.1 8.3 8.1 7.9 7.7 7.5 7.3 7.2 7.0 7.0
8.3 8.1 7.9 7.5 7.9 7.8 7.6 7.4 7.9 7.8 7.7 7.8 7.6 7.9 8.1 8.3 8.5 8.5 8.3 8.3 8.2 8.3 8.2 8.4 8.4 8.3 8.3 8.3 8.4 8.6 8.6 8.3 8.1 7.9 8.0 8.0 8.0 8.0 7.8 7.6 7.5 7.4 7.1 7.0
8.0 8.0 7.9 8.1 8.0 7.5 7.2 7.6 7.7 7.9 8.0 7.9 7.9 8.1 8.3 8.3 8.4 8.4 8.3 8.3 8.4 8.2 8.2 8.3 8.4 8.4 8.4 8.4 8.4 8.6 8.7 8.8 8.6 8.2 8.0 8.0 7.9 7.9 7.9 7.8 7.7 7.4 7.2 7.0
7.7 7.9 8.1 7.7 7.5 8.0 7.6 7.8 8.1 8.0 8.1 8.2 8.1 8.3 8.4 8.4 8.4 8.4 8.5 8.5 8.6 8.3 8.1 8.0 8.1 8.2 8.4 8.6 8.6 8.6 8.6 8.6 8.5 8.4 8.3 8.1 8.1 8.0 7.9 7.9 7.7 7.6 7.4 7.4
8.0 7.8 8.0 7.7 7.7 7.7 7.8 8.0 8.3 8.6 8.2 8.4 8.5 8.5 8.6 8.6 8.5 8.5 8.4 8.3 8.3 8.2 8.1 8.0 8.0 7.9 8.0 8.1 8.2 8.2 8.2 8.2 8.2 8.1 7.9 8.1 8.2 8.1 8.0 8.0 7.8 7.8 7.6 7.5
8.0 7.9 7.8 7.8 7.9 7.8 7.5 8.1 8.4 7.9 7.7 8.3 8.3 8.4 8.5 8.5 8.4 8.3 8.1 8.0 7.9 7.8 7.8 7.7 7.7 7.6 7.7 7.8 8.0 8.0 8.1 8.0 8.0 7.9 7.8 8.0 8.2 8.2 8.2 8.0 7.7 7.5 7.6 7.8
8.0 7.9 8.0 8.1 7.9 7.5 7.7 7.9 7.8 8.1 8.3 8.2 8.4 8.4 8.3 8.1 8.0 7.9 7.8 7.7 7.6 7.4 7.3 7.2 7.2 7.2 7.2 7.3 7.4 7.6 7.6 7.7 7.6 7.3 7.5 7.5 7.5 7.5 7.1 7.1 7.3 7.1 7.2 6.7
7.8 8.0 8.1 8.0 8.0 7.8 7.9 7.9 8.2 8.1 8.3 8.2 8.2 8.1 7.8 7.6 7.6 7.6 7.6 7.4 7.2 7.1 7.0 6.9 6.8 6.8 6.9 6.9 6.9 7.0 7.0 7.0 7.0 7.0 7.1 7.2 7.4 7.3 7.1 6.9 6.9 7.1 7.5 6.7
7.8 7.8 7.7 7.9 7.5 7.3 7.4 7.8 8.0 7.5 7.8 8.1 7.7 7.6 7.3 7.4 7.3 7.2 7.0 6.9 6.8 6.9 6.8 6.7 6.5 6.4 6.4 6.4 6.4 6.4 6.3 6.4 6.5 6.8 6.8 6.8 7.0 7.1 7.2 7.3 7.4 7.4 7.5 7.1
7.7 7.6 7.5 7.4 7.4 7.0 7.1 7.1 7.2 7.2 7.2 7.3 7.2 7.3 7.2 6.9 7.0 6.8 6.6 6.3 6.2 6.2 6.2 6.3 6.3 6.2 6.1 6.1 6.2 6.2 6.2 6.2 6.3 6.5 6.7 6.8 7.0 7.0 7.0 7.2 7.2 7.3 7.3 7.0
7.7 7.6 7.3 7.4 7.4 7.2 6.7 6.5 6.5 6.1 5.9 6.1 5.9 6.2 6.7 6.5 6.4 6.3 6.2 6.0 5.9 6.0 6.0 6.1 6.2 6.3 6.3 6.4 6.4 6.5 6.6 6.8 6.9 6.9 6.9 6.9 6.9 7.0 7.1 7.1 7.1 7.0 7.2 6.8
Wind_Speed
4 7 13 10 7 4 5 4 4 4 2 3 6 10 8 6 8 12 10 11 12 13 12 14 15 16 16 16 16 17 16 15 11 9 9 6 7 6 8 10 14 15 15 14
4 14 11 8 8 7 7 6 6 6 3 6 2 7 6 5 7 13 11 12 13 12 12 15 16 16 18 18 18 17 17 15 13 9 7 4 6 5 9 11 13 13 15 15
12 5 9 9 8 9 7 9 7 8 0 5 2 4 5 2 8 9 11 12 13 16 16 15 17 18 16 18 18 18 18 16 15 12 7 4 6 5 5 6 7 12 14 15
11 7 13 10 11 11 10 11 7 7 3 7 2 5 4 4 9 9 14 13 13 15 16 16 17 17 18 18 17 18 18 18 15 16 13 13 11 10 7 8 9 13 15 15
9 11 13 14 17 13 9 6 10 8 7 3 4 4 3 2 7 15 13 13 12 16 17 18 19 18 18 16 17 17 18 18 17 17 16 12 14 10 8 8 10 10 14 14
8 3 10 12 4 13 7 6 3 2 3 6 7 7 5 5 6 5 6 10 11 15 17 17 16 15 15 14 15 17 19 19 18 17 17 16 16 12 11 11 9 9 7 11
4 5 4 4 11 5 6 6 2 4 5 6 4 5 8 5 8 10 11 8 6 12 15 15 17 16 16 18 18 17 20 20 20 19 18 17 15 17 15 15 11 12 9 8
14 12 11 5 7 11 10 12 5 10 6 7 2 6 4 4 5 9 10 9 4 10 11 14 17 17 17 18 19 19 21 21 21 20 20 16 17 12 12 14 12 11 11 10
13 17 3 7 6 10 5 8 4 5 2 3 5 4 7 4 7 6 6 5 7 8 11 13 14 15 16 17 19 20 20 20 20 21 17 18 16 16 14 15 14 12 12 13
6 7 6 7 4 1 12 11 5 0 7 8 4 4 7 5 8 6 6 9 8 7 8 10 12 13 14 16 17 18 19 21 20 19 17 15 17 17 15 14 16 15 13 17
7 4 2 8 13 17 6 6 2 5 3 10 10 6 8 11 11 9 7 8 5 4 5 4 6 10 13 15 16 17 17 19 18 17 17 17 16 16 16 15 15 16 16 19
11 5 5 14 2 8 20 14 9 6 7 1 2 8 4 12 8 8 7 3 3 5 5 6 6 10 12 14 15 17 17 18 18 17 16 16 16 16 16 16 16 17 16 20
9 6 7 6 4 3 8 10 12 5 3 11 9 6 2 5 7 9 7 4 3 4 7 4 7 9 10 12 13 14 15 16 15 16 16 16 16 17 17 16 16 16 16 16
19 6 20 17 18 6 5 6 7 14 7 10 13 11 7 10 11 10 8 4 4 6 7 6 5 7 7 9 11 12 13 14 15 16 17 17 17 17 16 16 17 17 16 17
11 14 10 18 6 11 16 15 14 14 14 12 12 12 15 13 13 9 4 1 1 3 6 7 6 5 4 8 9 10 11 13 15 16 17 17 16 16 16 16 15 16 16 16
2 6 8 8 12 12 13 17 19 18 9 11 9 9 2 5 9 6 4 3 3 4 6 8 8 6 5 7 9 11 12 13 15 15 16 15 15 16 17 17 16 14 16 15
7 7 5 13 8 10 9 17 16 10 8 13 12 8 15 8 10 7 5 3 2 3 5 8 9 9 7 6 8 11 12 13 14 14 14 15 16 17 17 16 16 14 17 16
5 6 1 4 10 9 11 5 18 17 10 10 5 11 16 15 10 8 4 3 3 3 4 6 8 9 9 8 6 7 10 12 13 13 14 15 15 16 15 16 16 13 14 14
4 4 4 5 7 2 2 5 9 13 11 12 10 15 18 17 11 5 3 4 4 4 5 5 6 7 8 6 3 7 9 10 10 11 12 13 14 15 16 16 15 13 13 11
5 1 2 3 5 10 3 2 2 4 10 12 12 19 22 14 9 5 4 5 6 5 5 6 8 6 8 8 2 5 6 7 8 8 9 9 11 12 13 14 13 11 11 10
4 2 6 3 3 2 1 2 2 11 4 17 16 16 17 10 2 14 8 8 7 7 8 7 8 9 8 6 4 3 3 4 4 6 7 8 9 10 10 11 10 10 10 10
8 7 4 3 6 9 1 2 5 1 5 11 13 9 11 14 14 12 10 9 8 10 11 11 10 9 8 7 5 5 3 2 4 6 7 8 8 7 8 11 11 13 11 10
7 5 6 2 2 2 3 3 2 1 12 7 12 12 16 15 12 10 8 8 9 9 9 9 9 10 9 8 7 6 3 2 4 5 6 7 8 8 9 12 11 9 10 8
2 4 4 5 4 3 3 5 4 7 11 13 15 15 12 15 11 9 8 8 9 10 11 10 10 11 10 10 9 6 3 2 4 4 5 6 7 9 9 7 8 9 9 8
2 6 7 5 7 7 8 6 9 13 14 14 12 11 12 12 10 9 9 8 7 7 8 9 9 9 10 10 10 10 6 3 4 4 4 6 6 9 9 9 9 10 13 12
1 6 5 4 9 8 5 4 9 13 12 13 15 11 10 10 10 9 8 6 5 6 6 6 7 8 9 9 9 11 11 5 6 6 5 6 6 7 7 8 8 2 6 11
Wind_Direction
186 196 204 188 181 169 180 193 215 238 235 261 243 261 269 247 227 238 212 207 197 202 187 186 189 186 184 181 178 184 181 185 175 178 172 173 175 172 171 175 173 164 164 161
152 219 209 179 172 169 181 195 223 283 260 221 208 272 287 263 244 240 229 215 202 190 185 188 190 188 189 183 184 185 190 184 185 185 181 176 169 176 173 174 175 172 168 166
202 197 183 174 170 179 199 206 218 239 230 228 229 253 260 249 255 253 240 229 205 194 193 192 194 194 190 189 188 189 188 187 187 188 162 124 121 138 159 172 174 179 177 173
219 201 179 186 192 180 205 210 207 231 257 261 271 252 241 258 278 256 253 229 205 197 202 196 195 195 195 195 191 189 190 185 187 185 190 186 190 188 190 185 180 176 180 176
205 178 178 199 194 183 219 163 211 234 224 241 199 234 220 302 264 256 263 241 206 201 196 200 200 199 198 190 190 190 189 188 185 188 194 190 198 195 180 179 172 179 181 180
195 184 199 200 158 175 150 171 81 82 171 230 205 215 227 210 234 274 269 254 201 194 202 206 201 194 194 190 185 184 187 193 188 189 192 194 191 180 178 177 180 183 181 178
155 202 199 144 191 172 174 147 203 204 202 230 183 178 251 240 244 253 276 284 211 193 195 196 190 190 189 189 187 188 192 195 192 193 193 195 190 188 186 180 185 180 182 184
200 216 188 175 191 188 184 187 189 207 205 215 159 222 225 220 263 273 270 273 260 194 202 202 199 195 190 190 190 192 196 198 193 195 195 193 191 191 196 190 185 191 192 188
195 218 193 199 171 159 171 200 171 106 46 181 195 255 270 239 263 275 261 251 245 218 204 208 202 197 189 190 194 195 198 202 197 197 194 194 193 194 197 192 190 193 189 180
182 206 202 176 136 138 197 155 154 127 171 225 207 238 216 213 224 250 247 234 250 226 208 207 204 195 190 194 195 198 201 203 199 195 194 193 193 195 194 189 190 193 186 178
148 138 176 149 203 187 161 178 111 132 171 222 230 231 214 200 201 209 223 221 225 238 246 228 204 191 191 193 195 199 201 204 203 198 195 195 194 194 193 194 192 190 183 179
184 141 173 208 160 219 206 195 185 189 191 211 229 219 192 219 222 211 204 193 224 246 254 244 209 189 189 194 196 199 202 204 201 198 194 198 192 196 194 197 194 186 187 185
176 188 185 204 218 191 196 196 193 152 133 203 217 215 204 216 218 214 199 211 256 287 296 254 226 213 203 198 197 200 202 205 201 199 195 196 196 197 199 199 196 189 188 186
169 159 202 208 217 144 181 169 178 192 205 214 230 222 211 212 209 195 180 205 278 287 293 300 257 240 220 205 200 199 200 200 196 196 200 197 197 199 199 196 194 195 192 186
170 212 204 212 181 194 206 200 182 200 210 207 222 213 216 212 192 172 148 140 206 2 341 335 321 283 230 211 203 200 200 195 193 196 202 203 198 198 196 194 192 195 194 193
197 205 169 188 198 186 208 209 196 202 203 230 219 221 173 125 130 141 133 128 63 10 340 331 327 321 283 237 210 200 198 194 192 197 203 198 195 195 195 192 193 189 195 193
165 147 152 214 189 192 249 210 195 197 193 200 205 208 161 160 148 141 121 98 86 354 323 325 324 315 306 279 228 209 193 184 192 195 195 192 193 195 196 193 191 189 194 187
157 141 129 141 142 196 243 235 205 211 200 189 164 173 172 144 123 119 125 139 84 34 345 323 318 313 311 301 256 211 184 185 190 194 190 190 191 192 191 192 193 188 189 184
191 141 120 156 199 292 162 182 161 182 215 196 166 145 136 134 128 106 97 69 49 11 345 327 324 319 321 320 262 182 177 183 188 193 196 192 191 188 186 192 194 186 184 176
120 113 167 159 176 217 197 160 184 150 218 167 160 158 156 158 174 145 118 74 61 48 21 1 360 17 28 18 99 160 168 176 192 195 197 191 196 191 193 196 187 175 176 172
125 121 184 164 213 273 254 288 259 177 218 166 167 160 159 169 100 132 124 89 65 57 43 33 44 46 38 41 90 111 141 175 171 169 176 181 193 196 191 183 180 171 163 153
179 168 183 143 198 237 132 155 200 75 78 134 138 140 138 121 119 121 111 90 67 53 41 36 45 45 43 42 47 59 74 102 148 161 170 182 184 190 182 179 177 169 161 158
206 206 172 232 193 5 325 301 11 248 134 119 119 125 132 129 123 116 99 77 60 47 42 32 38 44 39 31 30 25 44 129 147 162 173 180 179 177 179 177 169 168 170 173
130 174 107 146 23 8 32 62 77 112 106 117 127 126 128 121 119 107 87 70 60 46 38 29 37 33 25 13 9 352 352 173 183 194 186 180 185 186 186 186 185 177 174 175
151 137 138 92 118 96 44 80 98 95 95 94 85 101 116 115 106 106 91 77 70 60 47 36 34 28 17 11 13 6 337 278 246 236 211 204 202 195 194 204 202 201 205 194
247 162 166 182 150 122 123 131 110 110 111 113 114 104 91 104 105 109 96 82 65 55 39 32 26 15 3 0 7 13 7 314 275 258 235 223 213 210 213 210 205 96 203 196